GW3294 Weather Reports


Display with metric or nautical units.
time (UTC)temp
F
wind
direction
speed
MPH
gust
MPH
rain 1hr
in
rain 24hr
in
rain mn
in
humidity
%
barometer
mb
20260507020855 50 119 2.0 3.0 0.00 0.05 0.05 76 1019.5
20260507020351 50 107 1.0 3.0 0.00 0.05 0.05 76 1019.6
20260507015848 51 117 1.0 2.0 0.00 0.05 0.05 75 1019.3
20260507015346 51 103 2.0 3.0 0.00 0.05 0.05 74 1019.4
20260507014843 50 106 1.0 3.0 0.00 0.05 0.05 75 1019.3
20260507014339 51 113 1.0 3.0 0.00 0.05 0.05 72 1019.0
20260507013836 52 125 0.0 3.0 0.00 0.05 0.05 71 1018.8
20260507013333 53 103 2.0 3.0 0.00 0.05 0.05 69 1019.0
20260507012830 54 113 2.0 2.0 0.00 0.05 0.05 67 1018.9
20260507012326 55 105 2.0 2.0 0.00 0.05 0.05 66 1018.7
20260507011823 55 89 0.0 2.0 0.00 0.05 0.05 65 1018.7
20260507011320 56 126 0.0 1.0 0.00 0.05 0.05 64 1018.8
20260507010820 56 156 0.0 2.0 0.00 0.05 0.05 63 1018.7
20260507010315 57 135 0.0 1.0 0.00 0.05 0.05 63 1018.3
20260507005813 57 129 0.0 2.0 0.00 0.05 0.05 61 1018.4
20260507005309 57 76 0.0 2.0 0.00 0.05 0.05 60 1018.2
20260507004801 56 85 0.0 2.0 0.00 0.05 0.05 59 1018.4
20260507004258 57 22 0.0 1.0 0.00 0.05 0.05 58 1018.3
20260507003754 57 122 0.0 2.0 0.00 0.05 0.05 56 1018.1
20260507003250 58 59 1.0 3.0 0.00 0.05 0.05 55 1018.2
20260507002746 59 77 1.0 4.0 0.00 0.05 0.05 53 1018.3
20260507002242 59 89 0.0 2.0 0.00 0.05 0.05 54 1018.2
20260507001739 59 89 0.0 2.0 0.00 0.05 0.05 55 1018.0
20260507001237 59 48 2.0 5.0 0.00 0.05 0.05 49 1018.2
20260507000733 60 121 2.0 3.0 0.00 0.05 0.05 50 1018.1
20260507000228 60 132 3.0 4.0 0.00 0.05 0.05 54 1018.0
20260506235725 59 131 2.0 4.0 0.00 0.05 0.05 53 1018.1
20260506235221 59 95 2.0 6.0 0.00 0.05 0.05 50 1018.1
20260506234718 59 122 0.0 3.0 0.00 0.05 0.05 54 1018.1
20260506234215 59 145 2.0 4.0 0.00 0.05 0.05 53 1017.9
20260506233713 60 137 2.0 5.0 0.00 0.05 0.05 47 1017.8
20260506233209 60 156 0.0 4.0 0.00 0.05 0.05 43 1017.8
20260506232707 60 188 3.0 5.0 0.00 0.05 0.05 49 1018.2
20260506232200 60 88 2.0 5.0 0.00 0.05 0.05 53 1018.1
20260506231658 62 127 0.0 2.0 0.00 0.05 0.05 52 1018.1
20260506231157 61 78 2.0 6.0 0.00 0.05 0.05 49 1017.9
20260506230653 63 142 0.0 2.0 0.00 0.05 0.05 48 1018.2
20260506230150 61 134 2.0 4.0 0.00 0.05 0.05 49 1018.3
20260506225646 61 218 2.0 2.0 0.00 0.05 0.05 46 1018.0
20260506225143 61 225 1.0 4.0 0.00 0.05 0.05 53 1018.2
20260506224639 63 116 3.0 4.0 0.00 0.05 0.05 49 1018.0
20260506224136 62 116 2.0 3.0 0.00 0.05 0.05 52 1018.4
20260506223632 63 130 1.0 3.0 0.00 0.05 0.05 48 1018.1
20260506223128 64 178 1.0 3.0 0.00 0.05 0.05 45 1018.1
20260506222626 65 118 0.0 3.0 0.00 0.05 0.05 49 1018.2
20260506222122 64 106 4.0 7.0 0.00 0.05 0.05 46 1018.1
20260506221620 66 229 0.0 3.0 0.00 0.05 0.05 41 1018.2
20260506221118 67 104 0.0 2.0 0.00 0.05 0.05 45 1018.4
20260506220614 69 133 4.0 7.0 0.00 0.05 0.05 37 1018.2
20260506220109 67 130 2.0 4.0 0.00 0.05 0.05 42 1018.3
20260506215606 65 135 0.0 4.0 0.00 0.05 0.05 45 1018.3
20260506215101 66 139 2.0 10.0 0.00 0.05 0.05 45 1018.3
20260506214559 68 19 1.0 7.0 0.00 0.05 0.05 38 1018.3
20260506214056 66 37 3.0 7.0 0.00 0.05 0.05 44 1018.1
20260506213554 68 267 0.0 4.0 0.00 0.05 0.05 38 1018.4
20260506213051 67 181 0.0 4.0 0.00 0.05 0.05 43 1018.7
20260506212548 68 247 3.0 4.0 0.00 0.05 0.05 38 1018.3
20260506212043 68 164 3.0 7.0 0.00 0.05 0.05 40 1018.6
20260506211539 67 231 3.0 7.0 0.00 0.05 0.05 41 1018.4
20260506211036 67 230 2.0 4.0 0.00 0.05 0.05 46 1018.6
20260506210532 69 278 1.0 5.0 0.00 0.05 0.05 42 1018.5
20260506210029 68 253 1.0 2.0 0.00 0.05 0.05 42 1018.6
20260506205526 68 35 2.0 3.0 0.00 0.05 0.05 42 1018.5
20260506205021 67 239 1.0 3.0 0.00 0.05 0.05 39 1018.5
20260506204520 68 75 0.0 5.0 0.00 0.05 0.05 45 1018.6
20260506204016 69 208 2.0 4.0 0.00 0.05 0.05 36 1018.5
20260506203515 69 267 2.0 7.0 0.00 0.05 0.05 41 1018.6
20260506203010 72 248 1.0 3.0 0.00 0.05 0.05 37 1018.7
20260506202508 70 221 2.0 7.0 0.00 0.05 0.05 37 1018.7
20260506202004 71 251 3.0 3.0 0.00 0.05 0.05 40 1019.0
20260506201502 67 24 1.0 7.0 0.00 0.05 0.05 44 1019.0
20260506200958 68 274 2.0 4.0 0.00 0.05 0.05 40 1019.0
20260506200454 67 291 1.0 7.0 0.00 0.05 0.05 39 1019.0
20260506195951 68 245 2.0 5.0 0.00 0.05 0.05 38 1019.0
20260506195449 71 231 0.0 5.0 0.00 0.05 0.05 36 1019.1
20260506194945 70 308 2.0 6.0 0.00 0.05 0.05 38 1019.0
20260506194442 65 31 1.0 7.0 0.00 0.05 0.05 42 1018.9
20260506193939 66 131 2.0 6.0 0.00 0.05 0.05 48 1019.0
20260506193436 67 194 2.0 7.0 0.00 0.05 0.05 40 1019.1
20260506192932 68 271 3.0 3.0 0.00 0.05 0.05 40 1019.0
20260506192429 66 354 0.0 7.0 0.00 0.05 0.05 44 1019.0
20260506191926 67 144 3.0 5.0 0.00 0.05 0.05 39 1018.9
20260506191422 66 245 4.0 4.0 0.00 0.05 0.05 47 1019.1
20260506190919 64 90 2.0 5.0 0.00 0.05 0.05 53 1019.0
20260506190416 65 163 3.0 7.0 0.00 0.05 0.05 53 1019.2
20260506185913 63 326 1.0 6.0 0.00 0.05 0.05 50 1018.9
20260506185410 63 187 1.0 6.0 0.00 0.05 0.05 49 1019.1
20260506184907 63 185 2.0 4.0 0.00 0.05 0.05 53 1018.7
20260506184404 66 297 1.0 7.0 0.00 0.05 0.05 40 1018.6
20260506183901 66 145 3.0 8.0 0.00 0.05 0.05 42 1018.7
20260506183356 65 102 2.0 6.0 0.00 0.05 0.05 44 1019.0
20260506182854 66 166 3.0 5.0 0.00 0.05 0.05 46 1018.9
20260506182351 65 60 0.0 5.0 0.00 0.05 0.05 49 1019.0
20260506181848 66 235 2.0 4.0 0.00 0.05 0.05 40 1018.9
20260506181346 66 91 1.0 3.0 0.00 0.05 0.05 55 1019.2
20260506180843 65 58 3.0 5.0 0.00 0.05 0.05 51 1019.3
20260506180339 63 98 1.0 4.0 0.00 0.05 0.05 57 1019.3
20260506175836 62 180 3.0 7.0 0.00 0.05 0.05 46 1019.5
20260506175332 63 210 2.0 7.0 0.00 0.05 0.05 44 1019.3
20260506174830 64 102 3.0 7.0 0.00 0.05 0.05 50 1019.3
20260506174327 62 130 3.0 5.0 0.00 0.05 0.05 60 1019.2
20260506173824 62 118 3.0 6.0 0.00 0.05 0.05 59 1019.2
20260506173321 61 124 2.0 8.0 0.00 0.05 0.05 56 1019.1
20260506172818 62 131 3.0 5.0 0.00 0.05 0.05 58 1019.3
20260506172315 62 255 2.0 7.0 0.00 0.05 0.05 57 1019.2
20260506171812 60 149 2.0 4.0 0.00 0.05 0.05 67 1019.3
20260506171309 58 266 0.0 8.0 0.00 0.05 0.05 70 1019.2
20260506170807 59 186 1.0 5.0 0.00 0.05 0.05 67 1019.3
20260506170303 58 178 0.0 5.0 0.00 0.05 0.05 75 1019.4
20260506165802 57 177 3.0 4.0 0.00 0.05 0.05 80 1019.3
20260506165259 57 154 3.0 4.0 0.00 0.05 0.05 76 1019.3
20260506164755 57 26 2.0 4.0 0.00 0.05 0.05 78 1019.3
20260506164252 57 53 2.0 3.0 0.00 0.05 0.05 79 1019.1
20260506163749 56 134 2.0 5.0 0.00 0.05 0.05 77 1019.4
20260506163244 55 144 4.0 7.0 0.00 0.05 0.05 78 1019.1
20260506162740 55 100 0.0 4.0 0.00 0.05 0.05 80 1019.1
20260506162238 54 237 0.0 4.0 0.00 0.05 0.05 84 1019.4
20260506161730 54 67 2.0 2.0 0.00 0.05 0.05 87 1019.3
20260506161227 53 111 3.0 6.0 0.00 0.05 0.05 85 1019.0
20260506160724 53 39 1.0 2.0 0.00 0.05 0.05 86 1018.8
20260506160221 53 170 5.0 5.0 0.00 0.05 0.05 88 1018.9
20260506155719 53 123 0.0 3.0 0.00 0.05 0.05 90 1018.7
20260506155216 53 110 0.0 3.0 0.00 0.05 0.05 91 1018.8
20260506153323 51 298 1.0 4.0 0.00 0.05 0.05 91 1018.6
20260506152820 51 122 1.0 3.0 0.00 0.05 0.05 93 1018.5
20260506152318 51 103 0.0 2.0 0.00 0.05 0.05 94 1018.4
20260506151817 50 93 0.0 4.0 0.00 0.05 0.05 94 1018.5
20260506151312 50 88 0.0 2.0 0.00 0.05 0.05 95 1018.4
20260506150809 50 32 0.0 3.0 0.00 0.05 0.05 96 1018.4
20260506150307 50 64 0.0 3.0 0.00 0.05 0.05 97 1018.7
20260506145803 50 186 0.0 3.0 0.00 0.05 0.05 98 1018.4
20260506145300 49 127 2.0 3.0 0.00 0.05 0.05 98 1018.3
20260506144757 49 224 0.0 2.0 0.00 0.05 0.05 99 1018.5
20260506144254 49 269 0.0 2.0 0.00 0.05 0.05 99 1018.3
20260506143752 50 158 3.0 4.0 0.00 0.05 0.05 99 1018.1
20260506143249 49 129 0.0 6.0 0.00 0.05 0.05 99 1018.2
20260506142747 49 125 1.0 7.0 0.00 0.05 0.05 99 1018.0
20260506142245 49 237 0.0 4.0 0.00 0.05 0.05 99 1018.4
20260506141743 48 125 3.0 7.0 0.00 0.05 0.05 99 1018.3
20260506141241 48 107 0.0 5.0 0.00 0.05 0.05 99 1018.2
20260506140738 48 201 0.0 2.0 0.00 0.05 0.05 99 1018.6
20260506140235 48 71 2.0 3.0 0.00 0.05 0.05 99 1018.5
20260506135732 48 89 0.0 4.0 0.00 0.05 0.05 99 1018.5
20260506135228 48 120 0.0 4.0 0.00 0.05 0.05 99 1018.4
20260506134725 48 174 0.0 5.0 0.00 0.05 0.05 99 1018.4
20260506134221 48 110 1.0 2.0 0.00 0.05 0.05 99 1018.4
20260506133719 48 148 0.0 3.0 0.00 0.05 0.05 99 1018.3
20260506133215 48 97 1.0 2.0 0.00 0.05 0.05 99 1018.3
20260506132712 48 113 2.0 3.0 0.00 0.05 0.05 99 1018.4
20260506132209 48 128 0.0 5.0 0.00 0.05 0.05 99 1018.4
20260506131707 47 118 2.0 4.0 0.00 0.05 0.05 99 1018.1
20260506131203 48 124 0.0 2.0 0.00 0.05 0.05 99 1018.1
20260506130700 48 38 2.0 4.0 0.00 0.05 0.05 99 1018.2
20260506130157 48 122 2.0 3.0 0.00 0.05 0.05 99 1018.0
20260506125655 48 89 0.0 2.0 0.00 0.05 0.05 99 1017.9
20260506125153 47 98 0.0 1.0 0.00 0.05 0.05 99 1017.9
20260506124650 47 119 0.0 2.0 0.00 0.05 0.05 99 1017.7
20260506124148 47 75 1.0 3.0 0.00 0.05 0.05 99 1017.7
20260506123645 47 32 0.0 1.0 0.00 0.05 0.05 99 1017.8
20260506123144 46 57 1.0 2.0 0.00 0.05 0.05 99 1017.7
20260506122640 46 121 1.0 2.0 0.00 0.05 0.05 99 1017.9
20260506122138 46 76 0.0 2.0 0.00 0.05 0.05 99 1017.6
20260506121635 46 111 0.0 2.0 0.00 0.05 0.05 99 1017.6
20260506121131 46 99 0.0 3.0 0.00 0.05 0.05 99 1017.5
20260506120630 46 55 0.0 3.0 0.00 0.05 0.05 99 1017.3
20260506120127 46 118 2.0 3.0 0.00 0.05 0.05 99 1017.3
20260506115625 46 31 1.0 2.0 0.00 0.05 0.05 99 1017.4
20260506115123 46 112 2.0 2.0 0.00 0.05 0.05 99 1017.5
20260506114620 46 66 0.0 3.0 0.00 0.05 0.05 99 1017.2
20260506114118 46 55 1.0 2.0 0.00 0.05 0.05 99 1017.8
20260506113616 46 122 1.0 2.0 0.00 0.05 0.05 99 1017.9
20260506113113 46 135 0.0 3.0 0.00 0.05 0.05 99 1017.3
20260506112609 46 310 0.0 2.0 0.00 0.05 0.05 99 1017.6
20260506112107 46 76 0.0 2.0 0.00 0.05 0.05 99 1017.3
20260506111605 46 48 1.0 3.0 0.00 0.05 0.05 99 1016.8
20260506111102 46 35 0.0 3.0 0.00 0.05 0.05 99 1017.0
20260506110559 46 89 0.0 1.0 0.00 0.05 0.05 99 1016.9
20260506110056 46 132 2.0 3.0 0.00 0.05 0.05 99 1016.3
20260506105553 46 32 0.0 2.0 0.00 0.05 0.05 99 1016.3
20260506105050 46 89 0.0 2.0 0.00 0.05 0.05 99 1016.2
20260506104548 46 94 0.0 2.0 0.00 0.05 0.05 99 1016.1
20260506104045 46 98 0.0 2.0 0.00 0.05 0.05 99 1015.5
20260506103542 46 44 1.0 2.0 0.00 0.05 0.05 99 1015.6
20260506103039 46 122 0.0 2.0 0.00 0.05 0.05 99 1015.6
20260506102538 46 104 2.0 3.0 0.00 0.05 0.05 99 1015.6
20260506102035 46 105 1.0 3.0 0.00 0.05 0.05 99 1015.6
20260506101531 46 147 0.0 2.0 0.00 0.05 0.05 99 1015.8
20260506101028 46 43 0.0 2.0 0.00 0.05 0.05 99 1015.7
20260506100527 46 119 0.0 2.0 0.00 0.05 0.05 99 1015.6
20260506100024 46 96 2.0 3.0 0.00 0.05 0.05 99 1015.6
20260506095523 46 135 0.0 3.0 0.00 0.05 0.05 99 1015.7
20260506095019 46 95 0.0 3.0 0.00 0.05 0.05 99 1015.6
20260506094517 46 116 2.0 2.0 0.00 0.05 0.05 99 1015.7
20260506094014 46 116 0.0 2.0 0.00 0.05 0.05 99 1015.5
20260506093512 46 49 0.0 2.0 0.00 0.05 0.05 99 1015.6
20260506093010 46 71 0.0 2.0 0.00 0.05 0.05 99 1015.5
20260506092508 46 65 0.0 2.0 0.00 0.05 0.05 99 1015.6
20260506092004 46 117 1.0 2.0 0.00 0.05 0.05 99 1015.8
20260506091503 46 91 2.0 3.0 0.00 0.05 0.05 99 1015.6
20260506090959 46 118 0.0 2.0 0.00 0.05 0.05 99 1015.9
20260506090457 46 124 0.0 2.0 0.00 0.05 0.05 99 1016.1
20260506085953 46 65 0.0 2.0 0.00 0.05 0.05 99 1016.3
20260506085450 46 49 0.0 2.0 0.00 0.05 0.05 99 1016.5
20260506084946 46 124 0.0 2.0 0.00 0.05 0.05 99 1015.8
20260506084443 46 108 0.0 3.0 0.00 0.05 0.05 99 1015.8
20260506083939 45 157 0.0 1.0 0.00 0.05 0.05 99 1015.6
20260506083437 46 127 1.0 3.0 0.00 0.05 0.05 99 1015.7
20260506082934 46 183 0.0 2.0 0.00 0.05 0.05 99 1015.8
20260506082431 46 89 0.0 2.0 0.00 0.05 0.05 99 1015.7
20260506081926 46 60 0.0 3.0 0.00 0.05 0.05 99 1015.5
20260506081425 46 95 0.0 3.0 0.00 0.05 0.05 99 1016.0
20260506080922 46 60 1.0 3.0 0.02 0.05 0.05 99 1015.5
20260506080419 46 119 0.0 1.0 0.02 0.05 0.05 99 1015.5
20260506073403 46 102 1.0 2.0 0.00 0.05 0.05 99 1015.0
20260506072900 46 106 0.0 2.0 0.00 0.05 0.05 99 1015.0
20260506072357 46 116 2.0 4.0 0.00 0.05 0.05 99 1015.0
20260506071854 46 100 1.0 2.0 0.00 0.05 0.05 99 1015.5
20260506071353 46 79 1.0 2.0 0.02 0.05 0.05 99 1015.5
20260506070849 46 101 0.0 2.0 0.02 0.05 0.05 99 1015.8
20260506070346 46 103 0.0 1.0 0.00 0.04 0.04 99 1015.9
20260506062323 46 157 0.0 2.0 0.02 0.03 0.03 99 1015.2
20260506061819 46 66 0.0 2.0 0.05 0.03 0.03 99 1015.1
20260506061316 46 32 0.0 1.0 0.05 0.02 0.02 99 1015.2
20260506060815 46 61 0.0 1.0 0.02 0.02 0.02 99 1015.2
20260506060312 46 124 0.0 1.0 0.02 0.02 0.02 99 1015.5
20260506051244 46 129 2.0 3.0 0.02 0.00 0.00 99 1015.2
20260506050742 46 71 1.0 2.0 0.02 0.00 0.00 99 1015.1
20260506050239 46 106 0.0 2.0 0.00 0.00 0.00 99 1015.0
20260506044730 46 89 1.0 2.0 0.02 0.58 0.58 99 1014.7
20260506044227 46 68 0.0 1.0 0.00 0.57 0.57 99 1014.8
20260506043724 46 103 0.0 2.0 0.02 0.57 0.57 99 1014.6
20260506043222 46 118 0.0 3.0 0.02 0.57 0.57 99 1014.8
20260506042720 46 54 2.0 3.0 0.00 0.57 0.57 99 1014.8
20260506042218 46 99 2.0 2.0 0.00 0.57 0.57 99 1015.2
20260506041716 46 124 0.0 1.0 0.00 0.57 0.57 99 1015.2
20260506041213 46 104 2.0 3.0 0.00 0.57 0.57 99 1015.2
20260506040711 46 89 1.0 2.0 0.00 0.57 0.57 99 1015.1
20260506040207 46 114 2.0 3.0 0.00 0.57 0.57 99 1015.0
20260506035704 46 129 0.0 3.0 0.00 0.57 0.57 99 1015.4
20260506035201 45 62 1.0 3.0 0.02 0.57 0.57 99 1015.2
20260506034658 46 112 2.0 3.0 0.00 0.57 0.57 99 1015.6
20260506034155 45 118 1.0 2.0 0.00 0.57 0.57 99 1015.5
20260506033652 45 108 1.0 2.0 0.00 0.57 0.57 99 1015.6
20260506033149 45 84 1.0 2.0 0.00 0.57 0.57 99 1015.7
20260506032646 45 113 0.0 2.0 0.00 0.57 0.57 99 1015.4
20260506032143 45 129 0.0 1.0 0.00 0.57 0.57 99 1015.0
20260506031640 45 80 0.0 2.0 0.00 0.57 0.57 99 1014.9
20260506031136 45 92 1.0 3.0 0.00 0.57 0.57 99 1014.7
20260506030635 45 132 0.0 1.0 0.00 0.57 0.57 99 1014.8
20260506030127 45 104 1.0 2.0 0.00 0.57 0.57 99 1014.6
20260506025623 45 94 0.0 2.0 0.00 0.57 0.57 99 1014.5
20260506025119 46 111 0.0 2.0 0.00 0.57 0.57 99 1014.2
20260506024617 45 104 1.0 2.0 0.00 0.57 0.57 99 1014.2
20260506024113 45 125 0.0 2.0 0.00 0.57 0.57 99 1014.4
20260506023610 45 107 2.0 3.0 0.00 0.57 0.57 99 1014.3
20260506023107 45 118 0.0 2.0 0.00 0.57 0.57 99 1014.8
20260506022604 45 135 0.0 2.0 0.00 0.57 0.57 99 1014.7
20260506022102 45 122 2.0 2.0 0.00 0.57 0.57 99 1014.3
20260506021559 45 122 2.0 2.0 0.02 0.57 0.57 99 1014.5
20260506021056 45 103 0.0 2.0 0.05 0.57 0.57 99 1014.5